SL-8 R/B

基本信息
目录编号:
19770
目录名称:
SL-8 R/B
国际标识:
1989-005B
轨道中心:
EARTH
物体状态:
在轨
发射日期:
1989-01-26 UTC
国别:
俄罗斯(独联体) (CIS)
轨道信息
数据来源: 国际轨道数据
星历时间: 2026-09-11T10:26:45+0800
半长轴: 7135.372km
偏心率: 0.0005926
轨道倾角: 74.045°
近地点辐角: 272.887°
升交点赤经: 308.394°
平近点角: 102.798°
近地点: 753.006km
远地点: 761.464km
周期: 99.973分钟
每日圈数: 14.403825
详细信息
发射场:
PKMTR
轨道高度:
LEO
数据来源:
AOE Integration Group
参考系:
TEME
时间系统:
UTC
历元类型:
SGP4
2D轨道图
3D轨道图
轨道高度分析图
轨道倾角分析图
轨道综合分析图
查看轨道综合分析图